千帆星座-36 (QIANFAN-36)

Basic Information
目录编号:
61569
目录名称:
QIANFAN-36
国际标识:
2024-185T
轨道中心:
EARTH
卫星名称:
千帆星座-36
卫星全名:
千帆星座-36 (QIANFAN-36)
卫星状态:
在轨 (已飞行515 天)
发射日期:
2024-10-15 UTC
国别 :
中国 (CN)
星等 :
--
Orbit Information
数据来源 国际轨道数据 AOE轨道数据
星历时间 2026-03-14T07:21:29+0800
10小时前
查看轨道信息
2026-03-12T14:00:00+0800
2天前
查看轨道信息
半长轴 7429.807km 7429.809km
偏心率 0.0007602 0.0007212
轨道倾角 88.972° 88.975°
近地点辐角 126.128° 132.322°
升交点赤经 71.520° 71.701°
平近点角 234.058° 103.038°
近地点 1046.021km 1046.313km
远地点 1057.319km 1057.031km
周期 106.225分钟 106.225分钟
每日圈数 13.556155 13.55615
Detailed Information
卫星平台:
36
覆盖范围:
全球
运营商:
上海垣信卫星科技有限公司
运营商所在国:
中国
使用方式:
暂无
Satellite Introduction
千帆星座,也被称为“G60星链”计划,是中国版“星链”的重要组成部分,旨在打造一个由1.4万多颗低轨宽频多媒体卫星构成的庞大星座。千帆星座计划由上海垣信卫星科技有限公司负责实施,于2023年启动建设。该项目是我国第二个低轨卫星大星座,旨在通过构建庞大的卫星网络,为全球用户提供高质量的通信和宽带互联网服务。
2D Orbit Map
3D Orbit Map
Orbit Altitude Analysis Chart
Orbit Inclination Analysis Chart
Orbit Comprehensive Analysis Chart
View Comprehensive Chart